Location: Leiter
(44.7178°N, 106.2687°W)
Time: 03:34:01
(UTC+00:00)

ESTCUBE 1 - Pass Details

Date: 28 June 2022
Orbit: 646 x 657 km, 97.9° (Epoch: 13 August)

Event Time Altitude Azimuth Distance (km) Brightness Sun altitude
Exits shadow 05:32:22 31° 197° (SSW) 1,135 ? -18.6°
Maximum altitude 05:34:16 55° 260° (W) 783 ? -18.7°
Drops below altitude 10° 05:38:40 10° 338° (NNW) 2,057 ? -19.0°
Sets 05:40:56 0° 343° (NNW) 2,973 ? -19.1°
